Hondo, TX

6:47 PM CDT on July 21, 2017 (GMT -0500)
Hondo Municipal

Weather History for KHDO - July, 2013

Change the Weather History Date:

Saturday, July 13, 2013

  Actual Average Record
Temperature  
Mean Temperature 84 °F -  
Max Temperature 102 °F 93 °F 102 °F (2000)
Min Temperature 69 °F 70 °F 68 °F (2014)
Cooling Degree Days 20    
Growing Degree Days 34 (Base 50)    
Moisture  
Dew Point 62 °F    
Average Humidity 48    
Maximum Humidity 84    
Minimum Humidity 23    
Precipitation  
Precipitation 0.00 in - - ()
Sea Level Pressure  
Sea Level Pressure 29.91 in    
Wind  
Wind Speed 6 mph (East)    
Max Wind Speed 14 mph    
Max Gust Speed 21 mph    
Visibility 10 miles    
Events      
Averages and records for this station are not official NWS values.
T = Trace of Precipitation, MM = Missing Value Source: NWS Daily Summary

Daily Weather History Graph

Daily Weather History Graph

Search for Another Location

Airport or City:

Trip Planner

Search our weather history database for the weather conditions in past years. The results will help you decide how hot, cold, wet, or windy it might be!

Date:

Astronomy

Jul. 13, 2013 Rise Set
Actual Time 6:46 AM CDT 8:38 PM CDT
Civil Twilight 6:19 AM CDT 9:05 PM CDT
Nautical Twilight 5:47 AM CDT 9:37 PM CDT
Astronomical Twilight 5:13 AM CDT 10:11 PM CDT
Moon 11:36 AM CDT (7/13) 11:50 PM CDT (7/13)
Length of Visible Light 14h 45m
Length of Day
13h 52m
Waxing Crescent, 26% of the Moon is Illuminated
Jul 13
Waxing Crescent
Jul 15
First Quarter
Jul 22
Full
Jul 29
Last Quarter
Aug 6
New

Hourly Weather History & Observations

Time (CDT) Temp. Heat Index Dew Point Humidity Pressure Visibility Wind Dir Wind Speed Gust Speed Precip Events Conditions
12:51 AM 82.0 °F 84.1 °F 66.0 °F 58% 29.92 in 10.0 mi SSE 8.1 mph - N/A   Clear
1:51 AM 80.1 °F 82.1 °F 66.0 °F 62% 29.93 in 10.0 mi SSE 6.9 mph - N/A   Clear
2:51 AM 77.0 °F - 66.0 °F 69% 29.93 in 10.0 mi ENE 4.6 mph - N/A   Clear
3:51 AM 73.9 °F - 66.0 °F 76% 29.93 in 10.0 mi ENE 3.5 mph - N/A   Clear
4:51 AM 72.0 °F - 64.9 °F 78% 29.93 in 10.0 mi NE 3.5 mph - N/A   Clear
5:51 AM 69.1 °F - 64.0 °F 84% 29.93 in 10.0 mi North 5.8 mph - N/A   Clear
6:51 AM 69.1 °F - 64.0 °F 84% 29.94 in 10.0 mi North 4.6 mph - N/A   Clear
7:51 AM 73.9 °F - 66.0 °F 76% 29.96 in 10.0 mi Calm Calm - N/A   Clear
8:51 AM 81.0 °F 84.4 °F 70.0 °F 69% 29.97 in 10.0 mi ENE 3.5 mph - N/A   Clear
9:51 AM 86.0 °F 91.5 °F 71.1 °F 61% 29.97 in 10.0 mi Calm Calm - N/A   Clear
10:51 AM 91.0 °F 93.8 °F 66.0 °F 44% 29.96 in 10.0 mi ENE 3.5 mph - N/A   Clear
11:51 AM 93.0 °F 95.9 °F 66.0 °F 41% 29.96 in 10.0 mi ESE 6.9 mph - N/A   Clear
12:51 PM 96.1 °F 98.3 °F 64.0 °F 35% 29.94 in 10.0 mi ESE 10.4 mph - N/A   Partly Cloudy
1:51 PM 99.0 °F 99.5 °F 61.0 °F 28% 29.92 in 10.0 mi ESE 12.7 mph 17.3 mph N/A   Clear
2:51 PM 99.0 °F 99.5 °F 61.0 °F 28% 29.90 in 10.0 mi Variable 5.8 mph - N/A   Clear
3:51 PM 100.9 °F 100.5 °F 57.9 °F 24% 29.89 in 10.0 mi ENE 9.2 mph 16.1 mph N/A   Clear
4:51 PM 100.0 °F 98.8 °F 55.9 °F 23% 29.87 in 10.0 mi SE 9.2 mph - N/A   Partly Cloudy
5:51 PM 100.0 °F 98.8 °F 55.9 °F 23% 29.85 in 10.0 mi East 13.8 mph 20.7 mph N/A   Clear
6:51 PM 99.0 °F 97.3 °F 55.0 °F 23% 29.84 in 10.0 mi SE 13.8 mph 19.6 mph N/A   Clear
7:51 PM 96.1 °F 94.5 °F 55.9 °F 26% 29.84 in 10.0 mi ESE 10.4 mph - N/A   Clear
8:51 PM 91.0 °F 89.2 °F 55.9 °F 30% 29.84 in 10.0 mi SE 5.8 mph - N/A   Clear
9:51 PM 84.9 °F 83.9 °F 57.0 °F 38% 29.85 in 10.0 mi Calm Calm - N/A   Clear
10:51 PM 84.9 °F 83.9 °F 57.0 °F 38% 29.86 in 10.0 mi SSE 4.6 mph - N/A   Clear
11:51 PM 84.0 °F 83.8 °F 59.0 °F 43% 29.87 in 10.0 mi South 9.2 mph - N/A   Clear